Powrót do katalogu

COSMOS 1375 DEB

AktywnyLEO
NORAD 16208·DEBRIS·🇷🇺 Russia

Wystrzelony Jun 6, 1982 z Plesetsk Cosmodrome

Loading…

Następne Przeloty (najbliższe 24 godziny)

TLE

ŚwieżeSource: Space-Track

Epoka: Sep 14, 2026, 21:29 UTC

1 16208U 82055K   26257.89548522 -.00000036  00000-0  45258-4 0  9990
2 16208  65.8333 123.8079 0046301 202.7459 175.4230 13.76193040 54533

Śledź COSMOS 1375 DEB w czasie rzeczywistym z AllMySat

Download on the App Store